Daviess Cnty AP, Washington,, IN

8:15 PM EDT on July 26, 2017 (GMT -0400)
Daviess County

Weather History for KDCY - July, 2014

Change the Weather History Date:

Monday, July 28, 2014

  Actual Average (KLWV) Record (KLWV)
Temperature  
Mean Temperature 65 °F -  
Max Temperature 74 °F 85 °F 96 °F (2011)
Min Temperature 56 °F 64 °F 51 °F (2013)
Growing Degree Days 15 (Base 50)    
Moisture  
Dew Point 59 °F    
Average Humidity 76    
Maximum Humidity 97    
Minimum Humidity 57    
Precipitation  
Precipitation 0.00 in - - ()
Sea Level Pressure  
Sea Level Pressure 29.99 in    
Wind  
Wind Speed 9 mph (NW)    
Max Wind Speed 18 mph    
Max Gust Speed 24 mph    
Visibility 10 miles    
Events      
Averages and records for this station are not official NWS values.
T = Trace of Precipitation, MM = Missing Value Source: NWS Daily Summary

Daily Weather History Graph

Daily Weather History Graph

Search for Another Location

Airport or City:

Trip Planner

Search our weather history database for the weather conditions in past years. The results will help you decide how hot, cold, wet, or windy it might be!

Date:

Astronomy

Jul. 28, 2014 Rise Set
Actual Time 6:46 AM EDT 9:03 PM EDT
Civil Twilight 6:16 AM EDT 9:32 PM EDT
Nautical Twilight 5:39 AM EDT 10:09 PM EDT
Astronomical Twilight 4:59 AM EDT 10:49 PM EDT
Moon 8:25 AM EDT (7/28) 9:46 PM EDT (7/28)
Length of Visible Light 15h 16m
Length of Day
14h 16m
Waxing Crescent, 3% of the Moon is Illuminated
Jul 28
Waxing Crescent
Aug 3
First Quarter
Aug 10
Full
Aug 17
Last Quarter
Aug 25
New

Hourly Weather History & Observations

Time (EDT) Temp. Dew Point Humidity Pressure Visibility Wind Dir Wind Speed Gust Speed Precip Events Conditions
12:15 AM 68.9 °F 60.3 °F 74% 29.89 in 10.0 mi NW 10.4 mph 17.3 mph N/A   Clear
12:55 AM 66.9 °F 59.9 °F 78% 29.89 in 10.0 mi WNW 6.9 mph - N/A   Clear
1:15 AM 67.1 °F 59.9 °F 78% 29.90 in 10.0 mi WNW 8.1 mph - N/A   Clear
1:35 AM 66.9 °F 59.9 °F 78% 29.90 in 10.0 mi WNW 6.9 mph - N/A   Clear
1:55 AM 66.2 °F 60.1 °F 81% 29.90 in 10.0 mi WNW 6.9 mph - N/A   Clear
2:15 AM 65.7 °F 60.1 °F 82% 29.90 in 10.0 mi WNW 5.8 mph - N/A   Clear
2:35 AM 65.1 °F 60.1 °F 84% 29.90 in 10.0 mi WNW 5.8 mph - N/A   Clear
2:55 AM 65.3 °F 60.1 °F 83% 29.90 in 10.0 mi WNW 5.8 mph - N/A   Clear
3:15 AM 64.9 °F 60.1 °F 84% 29.90 in 10.0 mi WNW 6.9 mph - N/A   Clear
3:35 AM 65.3 °F 60.1 °F 83% 29.90 in 10.0 mi WNW 6.9 mph - N/A   Clear
3:55 AM 64.6 °F 60.3 °F 86% 29.90 in 10.0 mi WNW 8.1 mph - N/A   Clear
4:35 AM 63.9 °F 60.8 °F 90% 29.91 in 10.0 mi NW 8.1 mph - N/A   Clear
4:55 AM 63.5 °F 60.8 °F 91% 29.91 in 10.0 mi NW 9.2 mph - N/A   Clear
5:15 AM 63.7 °F 60.8 °F 90% 29.92 in 10.0 mi NW 9.2 mph - N/A   Clear
5:35 AM 63.1 °F 60.8 °F 92% 29.92 in 10.0 mi NW 9.2 mph - N/A   Clear
5:55 AM 63.0 °F 60.8 °F 93% 29.93 in 10.0 mi NW 8.1 mph - N/A   Clear
6:15 AM 62.6 °F 60.8 °F 94% 29.94 in 10.0 mi NW 6.9 mph - N/A   Clear
6:35 AM 62.1 °F 60.8 °F 96% 29.95 in 10.0 mi NW 6.9 mph - N/A   Clear
6:55 AM 61.7 °F 60.8 °F 97% 29.95 in 10.0 mi NW 6.9 mph - N/A   Clear
7:15 AM 61.7 °F 61.0 °F 97% 29.95 in 10.0 mi NW 8.1 mph - N/A   Clear
7:35 AM 62.2 °F 61.3 °F 97% 29.96 in 10.0 mi NW 8.1 mph - N/A   Clear
7:55 AM 63.3 °F 61.9 °F 95% 29.97 in 10.0 mi NW 8.1 mph - N/A   Clear
8:15 AM 64.4 °F 61.9 °F 92% 29.97 in 10.0 mi NNW 6.9 mph - N/A   Clear
8:35 AM 65.3 °F 61.9 °F 89% 29.98 in 10.0 mi NNW 8.1 mph - N/A   Clear
8:55 AM 65.5 °F 61.5 °F 87% 29.99 in 10.0 mi NNW 9.2 mph - N/A   Scattered Clouds
9:15 AM 65.7 °F 61.3 °F 86% 30.00 in 10.0 mi NNW 9.2 mph - N/A   Mostly Cloudy
9:35 AM 66.7 °F 60.4 °F 80% 30.00 in 10.0 mi North 12.7 mph - N/A   Mostly Cloudy
9:55 AM 67.5 °F 60.3 °F 78% 30.00 in 10.0 mi North 12.7 mph - N/A   Scattered Clouds
10:35 AM 68.7 °F 61.0 °F 76% 30.01 in 10.0 mi NW 11.5 mph - N/A   Mostly Cloudy
10:55 AM 69.1 °F 62.1 °F 78% 30.02 in 10.0 mi NNW 9.2 mph - N/A   Overcast
11:15 AM 69.3 °F 61.2 °F 75% 30.02 in 10.0 mi NNW 11.5 mph - N/A   Mostly Cloudy
11:35 AM 69.6 °F 61.3 °F 75% 30.02 in 10.0 mi NW 9.2 mph - N/A   Mostly Cloudy
11:55 AM 70.9 °F 61.5 °F 72% 30.03 in 10.0 mi North 9.2 mph - N/A   Mostly Cloudy
12:15 PM 71.6 °F 62.1 °F 72% 30.03 in 10.0 mi NW 9.2 mph - N/A   Mostly Cloudy
12:35 PM 71.2 °F 60.8 °F 69% 30.03 in 10.0 mi NW 9.2 mph - N/A   Mostly Cloudy
12:55 PM 71.1 °F 61.3 °F 71% 30.03 in 10.0 mi NNW 8.1 mph - N/A   Mostly Cloudy
1:15 PM 71.4 °F 62.1 °F 72% 30.03 in 10.0 mi WNW 9.2 mph - N/A   Mostly Cloudy
1:35 PM 71.8 °F 61.7 °F 70% 30.03 in 10.0 mi NW 12.7 mph 17.3 mph N/A   Overcast
1:55 PM 73.8 °F 63.0 °F 69% 30.03 in 10.0 mi WNW 9.2 mph - N/A   Mostly Cloudy
2:15 PM 72.7 °F 61.9 °F 69% 30.03 in 10.0 mi NW 12.7 mph 17.3 mph N/A   Mostly Cloudy
2:35 PM 73.8 °F 62.2 °F 67% 30.02 in 10.0 mi NW 10.4 mph - N/A   Mostly Cloudy
2:55 PM 73.4 °F 61.3 °F 66% 30.03 in 10.0 mi NNW 11.5 mph 16.1 mph N/A   Overcast
3:15 PM 74.5 °F 61.3 °F 63% 30.02 in 10.0 mi NNW 16.1 mph - N/A   Mostly Cloudy
3:35 PM 72.7 °F 60.3 °F 65% 30.02 in 10.0 mi NW 9.2 mph 17.3 mph N/A   Mostly Cloudy
3:55 PM 74.8 °F 61.2 °F 62% 30.02 in 10.0 mi NNW 10.4 mph 16.1 mph N/A   Mostly Cloudy
4:15 PM 72.9 °F 59.2 °F 62% 30.03 in 10.0 mi NNW 12.7 mph - N/A   Scattered Clouds
4:35 PM 74.5 °F 59.7 °F 60% 30.03 in 10.0 mi NW 9.2 mph 19.6 mph N/A   Scattered Clouds
4:55 PM 73.6 °F 59.0 °F 60% 30.02 in 10.0 mi NW 13.8 mph - N/A   Mostly Cloudy
5:15 PM 73.8 °F 59.2 °F 60% 30.03 in 10.0 mi NNW 12.7 mph 17.3 mph N/A   Scattered Clouds
5:35 PM 73.4 °F 58.5 °F 59% 30.03 in 10.0 mi NNW 12.7 mph 20.7 mph N/A   Mostly Cloudy
5:55 PM 73.4 °F 57.2 °F 57% 30.03 in 10.0 mi NNW 15.0 mph 19.6 mph N/A   Scattered Clouds
6:15 PM 73.4 °F 57.9 °F 58% 30.03 in 10.0 mi NW 13.8 mph - N/A   Scattered Clouds
6:35 PM 71.2 °F 56.5 °F 60% 30.03 in 10.0 mi NNW 9.2 mph - N/A   Mostly Cloudy
6:55 PM 72.5 °F 57.7 °F 60% 30.03 in 10.0 mi NW 10.4 mph - N/A   Scattered Clouds
7:15 PM 72.0 °F 57.4 °F 60% 30.03 in 10.0 mi NW 10.4 mph 16.1 mph N/A   Clear
7:35 PM 71.1 °F 56.7 °F 60% 30.03 in 10.0 mi NNW 12.7 mph - N/A   Clear
7:55 PM 70.2 °F 56.3 °F 61% 30.03 in 10.0 mi NNW 6.9 mph - N/A   Clear
8:15 PM 68.9 °F 57.0 °F 66% 30.03 in 10.0 mi NNW 9.2 mph - N/A   Clear
8:35 PM 67.1 °F 57.6 °F 71% 30.03 in 10.0 mi NW 6.9 mph - N/A   Clear
8:55 PM 64.2 °F 58.1 °F 80% 30.04 in 10.0 mi NW 6.9 mph - N/A   Clear
9:15 PM 62.1 °F 58.5 °F 88% 30.04 in 10.0 mi NW 5.8 mph - N/A   Scattered Clouds
9:55 PM 65.7 °F 52.2 °F 62% 30.06 in 10.0 mi North 18.4 mph 24.2 mph N/A   Overcast
10:15 PM 63.5 °F 49.3 °F 60% 30.07 in 10.0 mi North 11.5 mph 16.1 mph N/A   Mostly Cloudy
10:35 PM 63.0 °F 50.2 °F 63% 30.08 in 10.0 mi North 8.1 mph - N/A   Mostly Cloudy
10:55 PM 59.4 °F 51.3 °F 75% 30.08 in 10.0 mi North 5.8 mph - N/A   Scattered Clouds
11:15 PM 57.9 °F 51.6 °F 80% 30.07 in 10.0 mi NNE 5.8 mph - N/A   Scattered Clouds
11:35 PM 56.7 °F 52.3 °F 85% 30.07 in 10.0 mi North 3.5 mph - N/A   Clear
11:55 PM 57.0 °F 51.3 °F 81% 30.07 in 10.0 mi Calm Calm - N/A   Clear